Miscellaneous Local Product
Issued by NWS North Platte, NE

Home | Current Version | Previous Version | Graphics & Text | Print | Product List | Glossary On
Versions: 1 2 3 4 5 6 7 8 9 10 11 12 13 14 15 16 17 18 19 20 21 22 23 24 25 26 27 28 29 30 31 32 33 34 35 36 37 38 39 40 41 42 43 44 45 46 47 48 49 50
831
AXUS43 KLBF 232310
MISLBF


WESTERN AND NORTH CENTRAL NEBRASKA HOURLY WEATHER ROUNDUP
NATIONAL WEATHER SERVICE NORTH PLATTE NE
500 PM CST FRI FEB 23 2018

NOTE: "FAIR" INDICATES FEW OR NO CLOUDS BELOW 12,000 FEET WITH NO
SIGNIFICANT WEATHER AND/OR OBSTRUCTIONS TO VISIBILITY.

NOTE: STATIONS NOT REPORTING VARIABLES SUCH AS SKY/WEATHER OR
PRESSURE ARE PROVIDED BY RAWS AND APRS NETWORKS AND ARE NOT UNDER
NATIONAL WEATHER SERVICE QUALITY CONTROL.

...OBSERVATIONS IN AND NEAR THE EASTERN PANHANDLE OF NEBRASKA...

CITY           SKY/WX    TMP DP  RH WIND       PRES   REMARKS
PINE RIDGE     SUNNY     24  10  55 CALM      30.10F
GORDON         CLOUDY    21   9  61 SE5       30.10S WCI  14
CHADRON        SUNNY     20   9  62 NE6       30.09F WCI  12
ALLIANCE       SUNNY     23  14  68 E7        30.05F WCI  15
SIDNEY         SUNNY     30  17  58 E14       30.02F WCI  19
CRESCENT LAKE    N/A     28  16  61 E7          N/A  WCI  21
$$

...OBSERVATIONS IN NORTHERN NEBRASKA AND FAR SOUTHERN SOUTH DAKOTA...

CITY           SKY/WX    TMP DP  RH WIND       PRES   REMARKS
WINNER         FAIR      20   8  60 CALM      30.24S
VALENTINE      SUNNY     23  12  62 S3        30.20R
AINSWORTH      MOSUNNY   22  14  73 CALM      30.19S
O`NEILL        MOSUNNY   20  15  81 CALM      30.25S
THEDFORD       SUNNY     27  17  67 NE5       30.16S WCI  21
BROKEN BOW     SUNNY     24  15  68 N7        30.18F WCI  16
ORD            SUNNY     26  18  71 E5        30.21F WCI  20
ALBION         MOSUNNY   26  20  78 N7        30.25S WCI  18
VALENTINE NWR    N/A     26  12  55 SE5         N/A  WCI  20
HALSEY           N/A     28  14  54 E5          N/A  WCI  23
BUTTE            N/A     20  14  78 S3          N/A
CHAMBERS         N/A     24  11  57 CALM        N/A
EWING            N/A     22  17  81 N3          N/A
$$

...OBSERVATIONS IN SOUTHWEST NEBRASKA AND FAR NORTHEAST COLORADO...

CITY           SKY/WX    TMP DP  RH WIND       PRES   REMARKS
WRAY           MOCLDY    34  23  64 E13G18    30.04S WCI  25
HOLYOKE        FAIR      34  21  60 E15       30.05S WCI  24
IMPERIAL       SUNNY     31  22  69 NE10      30.08F WCI  22
OGALLALA       SUNNY     28  19  67 E10       30.09F WCI  19
NORTH PLATTE   SUNNY     25  17  72 E10       30.15F WCI  15
MCCOOK         SUNNY     36  24  62 E13       30.11F WCI  27
LEXINGTON      CLOUDY    27  22  82 NE7       30.18S WCI  20
STAPLETON        N/A     23  15  73 CALM        N/A
$$

...OBSERVATIONS IN CENTRAL LINCOLN COUNTY AREA...

CITY           SKY/WX    TMP DP  RH WIND       PRES   REMARKS
N.P. AIRPORT   SUNNY     25  17  72 E10       30.15F WCI  15
N.P. DOWNTOWN    N/A     26  19  75 E3          N/A
N.P. SOUTHEAST   N/A     25  17  72 E3          N/A
N.P. HILLCREST   N/A     25  19  76 NE9         N/A  WCI  16
$$

...OBSERVATIONS ACROSS THE ROCKIES AND WESTERN HIGH PLAINS...

CITY           SKY/WX    TMP DP  RH WIND       PRES   REMARKS
RAPID CITY     SUNNY     17   7  64 SE14      30.08F WCI   3
SCOTTSBLUFF    SUNNY     26  16  65 E12       30.04F WCI  16
CHEYENNE       CLOUDY    23  18  81 S9        29.92S HAZE    WCI  13
DENVER         CLOUDY    28  22  78 N16       29.88F HAZE    WCI  16
BERTHOUD PASS  CLOUDY     9  -4  56 S12G23    29.75S WCI  -6
COPPER MTN     CLOUDY    16   5  62 SE6       29.75F HAZE    WCI   7
MONARCH PASS   LGT SNOW  12   9  85 SW37G45   29.85R VSB 3/4 WCI -11
ASPEN          PTSUNNY   29  11  47 N7        29.79S WCI  22
LARAMIE        PTSUNNY   24  15  68 SE20      29.81F WCI  10
CASPER         CLOUDY    17   8  67 CALM      29.93S
$$

...OBSERVATIONS ACROSS THE NORTHERN PLAINS...

CITY           SKY/WX    TMP DP  RH WIND       PRES   REMARKS
BISMARCK       SUNNY     19   7  59 SW7       30.19F WCI  10
FARGO          FAIR      14   7  73 W7        30.24R WCI   4
PIERRE         SUNNY     12   5  73 SW10      30.25R WCI  -1
SIOUX FALLS    CLOUDY    20  16  84 SW6       30.30R WCI  12
$$

...OBSERVATIONS ACROSS THE CENTRAL AND SOUTHERN PLAINS...

CITY           SKY/WX    TMP DP  RH WIND       PRES   REMARKS
OMAHA          MOSUNNY   27  22  81 N13       30.29F WCI  16
GRAND ISLAND   CLOUDY    25  20  81 NE12      30.23F WCI  14
KANSAS CITY    CLOUDY    34  29  82 NE7       30.23F WCI  28
WICHITA        CLOUDY    34  32  92 NE10      30.16F WCI  26
DODGE CITY     CLOUDY    30  26  85 E12       30.09F WCI  20
OKLAHOMA CITY  LGT RAIN  37  36  96 NE10      30.10R FOG     WCI  30
DALLAS         DRZL/FOG  51  49  92 CALM      30.05R VSB 1/4
AMARILLO       CLOUDY    47  32  56 SE21      29.94F
$$




USA.gov is the U.S. government's official web portal to all federal, state and local government web resources and services.